Flag for U.S.A. Weather past 2 weeks in Lafayette, Louisiana, U.S.A.

Now
80 °F

Sunny.


Feels Like: 82 °F
Forecast: 72 / 95 °F
Wind: 8 mph from Northeast

Location: Lafayette Regional Airport

Current Time: Aug 1, 2015 at 9:36:02 AM

Latest Report: Aug 1, 2015 at 8:53 AM


Visibility: 10 mi

Pressure: 29.96 "Hg

Humidity: 64%

Dew point: 67 °F

Location of LafayetteLocation

Historic Weather in Lafayette — Graph

°F

Lafayette temperature yesterday

Maximum temperature yesterday: 94 °F (at 4:53 PM)
Minimum temperature yesterday: 77 °F (at 6:53 AM)
Average temperature yesterday: 84 °F

Past Weeks' High & Low Weather Summary

 TemperatureHumidityPressure
High101 °F (Jul 30, 3:53 PM)94% (Jul 28, 5:53 AM)30.09 "Hg (Jul 28, 5:53 AM)
Low72 °F (Aug 1, 3:53 AM)37% (Jul 23, 3:53 PM)29.88 "Hg (Jul 26, 2:53 AM)
Average86 °F70%29.97 "Hg
* Reported Jul 17 7:53 AM — Aug 1 7:53 AM, Lafayette, Weather by CustomWeather, © 2015

Note: Actual official high and low records may vary slightly from our data, if they occured in-between our weather recording intervals... More about our weather records

Advertising

Lafayette weather history for previous 24 hours

 ConditionsComfort  
Time TempWeatherWind HumidityBarometerVisibility
7:53 AM
Sat, Aug 1
76 °FSunny.7 mph74%29.95 "Hg10 mi
6:53 AM72 °FClear.7 mph84%29.93 "Hg10 mi
5:53 AM72 °FClear.7 mph84%29.91 "Hg10 mi
4:53 AM73 °FClear.7 mph81%29.91 "Hg10 mi
3:53 AM72 °FClear.5 mph84%29.93 "Hg10 mi
2:53 AM73 °FClear.6 mph79%29.93 "Hg10 mi
1:53 AM73 °FClear.6 mph79%29.93 "Hg10 mi
12:53 AM76 °FClear.7 mph72%29.95 "Hg10 mi
11:53 PM
Fri, Jul 31
77 °FClear.7 mph71%29.97 "Hg10 mi
10:53 PM79 °FClear.6 mph69%29.96 "Hg10 mi
9:53 PM81 °FClear.3 mph69%29.96 "Hg10 mi
8:53 PM84 °FSunny.8 mph55%29.93 "Hg10 mi
7:53 PM87 °FSunny.8 mph51%29.91 "Hg10 mi
6:53 PM91 °FSunny.10 mph45%29.90 "Hg10 mi
5:53 PM92 °FSunny.12 mph43%29.90 "Hg10 mi
4:53 PM94 °FSunny.16 mph40%29.92 "Hg10 mi
3:53 PM93 °FSunny.14 mph46%29.93 "Hg10 mi
2:53 PM93 °FSunny.16 mph44%29.94 "Hg10 mi
1:53 PM92 °FSunny.13 mph44%29.96 "Hg10 mi
12:53 PM91 °FSunny.12 mph49%29.98 "Hg10 mi
11:53 AM90 °FSunny.9 mph57%29.98 "Hg10 mi
10:53 AM88 °FSunny.7 mph63%29.98 "Hg10 mi
9:53 AM85 °FSunny.9 mph68%29.98 "Hg10 mi
Weather by CustomWeather, © 2015

See weather overviewHow to use our weather pages